contact:dominique.lefevre@mio.osupytheas.fr, maurice.libes@osupytheas.fr, didier.mallarino@osupytheas.fr
Project:EMSO http://www.emso-fr.org/EMSO-France
Depth: 2436.0 m
Title:EMSO Ligure Ouest : Data MII capteur MICROCAT
DateTime_Computer,Latitude,Longitude,Temperature,Conductivity,Pressure,DateTime_Instrument
DateTime_Computer,Latitude,Longitude,degC,S m-1,dbar,DateTime_Instrument
2023-08-18T00:00:35Z,42.805,6.029,13.3036,4.60135,2470.717,2023-8-18T02:02:54Z
2023-08-18T00:03:38Z,42.805,6.029,13.3052,4.60140,2470.693,2023-8-18T02:05:57Z
2023-08-18T00:06:41Z,42.805,6.029,13.3035,4.60137,2470.717,2023-8-18T02:09:00Z
2023-08-18T00:09:44Z,42.805,6.029,13.3046,4.60143,2470.73,2023-8-18T02:12:03Z
2023-08-18T00:12:47Z,42.805,6.029,13.3041,4.60133,2470.707,2023-8-18T02:15:07Z
2023-08-18T00:15:50Z,42.805,6.029,13.3043,4.60125,2470.717,2023-8-18T02:18:10Z
2023-08-18T00:18:53Z,42.805,6.029,13.3041,4.60147,2470.693,2023-8-18T02:21:13Z
2023-08-18T00:21:56Z,42.805,6.029,13.3054,4.60141,2470.73,2023-8-18T02:24:16Z
2023-08-18T00:24:59Z,42.805,6.029,13.3039,4.60137,2470.707,2023-8-18T02:27:19Z
2023-08-18T00:28:02Z,42.805,6.029,13.3044,4.60132,2470.67,2023-8-18T02:30:22Z
2023-08-18T00:31:06Z,42.805,6.029,13.3043,4.60137,2470.707,2023-8-18T02:33:25Z
2023-08-18T00:34:09Z,42.805,6.029,13.3044,4.60137,2470.717,2023-8-18T02:36:28Z
2023-08-18T00:37:12Z,42.805,6.029,13.3047,4.60137,2470.693,2023-8-18T02:39:31Z
2023-08-18T00:40:15Z,42.805,6.029,13.3037,4.60132,2470.754,2023-8-18T02:42:34Z
2023-08-18T00:43:18Z,42.805,6.029,13.3039,4.60128,2470.693,2023-8-18T02:45:37Z
2023-08-18T00:46:21Z,42.805,6.029,13.3038,4.60136,2470.693,2023-8-18T02:48:40Z
2023-08-18T00:49:24Z,42.805,6.029,13.3046,4.60142,2470.707,2023-8-18T02:51:44Z
2023-08-18T00:52:27Z,42.805,6.029,13.3037,4.60125,2470.679,2023-8-18T02:54:47Z
2023-08-18T00:55:30Z,42.805,6.029,13.3043,4.60134,2470.73,2023-8-18T02:57:50Z
2023-08-18T00:58:33Z,42.805,6.029,13.3043,4.60133,2470.74,2023-8-18T03:00:53Z
2023-08-18T01:01:36Z,42.805,6.029,13.3035,4.60126,2470.646,2023-8-18T03:03:56Z
2023-08-18T01:04:39Z,42.805,6.029,13.3048,4.60140,2470.707,2023-8-18T03:06:59Z
2023-08-18T01:07:42Z,42.805,6.029,13.3046,4.60151,2470.684,2023-8-18T03:10:02Z
2023-08-18T01:10:46Z,42.805,6.029,13.3048,4.60150,2470.717,2023-8-18T03:13:05Z
2023-08-18T01:13:49Z,42.805,6.029,13.3054,4.60158,2470.707,2023-8-18T03:16:08Z
2023-08-18T01:16:52Z,42.805,6.029,13.3049,4.60172,2470.693,2023-8-18T03:19:11Z
2023-08-18T01:19:55Z,42.805,6.029,13.3044,4.60150,2470.661,2023-8-18T03:22:14Z
2023-08-18T01:22:58Z,42.805,6.029,13.3044,4.60122,2470.624,2023-8-18T03:25:17Z
2023-08-18T01:26:01Z,42.805,6.029,13.3053,4.60144,2470.67,2023-8-18T03:28:21Z
2023-08-18T01:29:04Z,42.805,6.029,13.3039,4.60138,2470.693,2023-8-18T03:31:24Z
2023-08-18T01:32:07Z,42.805,6.029,13.3046,4.60127,2470.67,2023-8-18T03:34:27Z
2023-08-18T01:35:10Z,42.805,6.029,13.3038,4.60119,2470.67,2023-8-18T03:37:30Z
2023-08-18T01:38:13Z,42.805,6.029,13.3056,4.60148,2470.646,2023-8-18T03:40:33Z
2023-08-18T01:41:16Z,42.805,6.029,13.3046,4.60140,2470.646,2023-8-18T03:43:36Z
2023-08-18T01:44:19Z,42.805,6.029,13.3049,4.60152,2470.646,2023-8-18T03:46:39Z
2023-08-18T01:47:23Z,42.805,6.029,13.3049,4.60144,2470.637,2023-8-18T03:49:42Z
2023-08-18T01:50:26Z,42.805,6.029,13.3048,4.60150,2470.684,2023-8-18T03:52:45Z
2023-08-18T01:53:29Z,42.805,6.029,13.3048,4.60147,2470.646,2023-8-18T03:55:48Z
2023-08-18T01:56:32Z,42.805,6.029,13.3045,4.60150,2470.67,2023-8-18T03:58:51Z
2023-08-18T01:59:35Z,42.805,6.029,13.3048,4.60178,2470.646,2023-8-18T04:01:54Z
2023-08-18T02:02:38Z,42.805,6.029,13.3047,4.60136,2470.646,2023-8-18T04:04:58Z
2023-08-18T02:05:41Z,42.805,6.029,13.3043,4.60165,2470.661,2023-8-18T04:08:01Z
2023-08-18T02:08:44Z,42.805,6.029,13.3054,4.60150,2470.624,2023-8-18T04:11:04Z
2023-08-18T02:11:47Z,42.805,6.029,13.3039,4.60135,2470.684,2023-8-18T04:14:07Z
2023-08-18T02:14:50Z,42.805,6.029,13.3043,4.60127,2470.646,2023-8-18T04:17:10Z
2023-08-18T02:17:53Z,42.805,6.029,13.3049,4.60150,2470.646,2023-8-18T04:20:13Z
2023-08-18T02:20:56Z,42.805,6.029,13.3048,4.60147,2470.684,2023-8-18T04:23:16Z
2023-08-18T02:24:00Z,42.805,6.029,13.3054,4.60148,2470.637,2023-8-18T04:26:19Z
2023-08-18T02:27:03Z,42.805,6.029,13.3039,4.60139,2470.684,2023-8-18T04:29:22Z
2023-08-18T02:30:06Z,42.805,6.029,13.3041,4.60155,2470.646,2023-8-18T04:32:25Z
2023-08-18T02:33:09Z,42.805,6.029,13.3038,4.60159,2470.67,2023-8-18T04:35:28Z
2023-08-18T02:36:12Z,42.805,6.029,13.3051,4.60159,2470.624,2023-8-18T04:38:31Z
2023-08-18T02:39:15Z,42.805,6.029,13.3042,4.60156,2470.624,2023-8-18T04:41:34Z
2023-08-18T02:42:18Z,42.805,6.029,13.3055,4.60158,2470.684,2023-8-18T04:44:38Z
2023-08-18T02:45:21Z,42.805,6.029,13.3054,4.60163,2470.67,2023-8-18T04:47:41Z
2023-08-18T02:48:24Z,42.805,6.029,13.3056,4.60157,2470.646,2023-8-18T04:50:44Z
2023-08-18T02:51:27Z,42.805,6.029,13.3048,4.60148,2470.646,2023-8-18T04:53:47Z
2023-08-18T02:54:30Z,42.805,6.029,13.3049,4.60117,2470.661,2023-8-18T04:56:50Z
2023-08-18T02:57:33Z,42.805,6.029,13.3043,4.60127,2470.67,2023-8-18T04:59:53Z
2023-08-18T03:00:37Z,42.805,6.029,13.3054,4.60140,2470.684,2023-8-18T05:02:56Z
2023-08-18T03:03:40Z,42.805,6.029,13.3051,4.60152,2470.646,2023-8-18T05:05:59Z
2023-08-18T03:06:43Z,42.805,6.029,13.3060,4.60147,2470.646,2023-8-18T05:09:02Z
2023-08-18T03:09:46Z,42.805,6.029,13.3049,4.60167,2470.67,2023-8-18T05:12:05Z
2023-08-18T03:12:49Z,42.805,6.029,13.3068,4.60174,2470.624,2023-8-18T05:15:08Z
2023-08-18T03:15:52Z,42.805,6.029,13.3069,4.60187,2470.661,2023-8-18T05:18:12Z
2023-08-18T03:18:55Z,42.805,6.029,13.3048,4.60144,2470.646,2023-8-18T05:21:15Z
2023-08-18T03:21:58Z,42.805,6.029,13.3055,4.60156,2470.624,2023-8-18T05:24:18Z
2023-08-18T03:25:01Z,42.805,6.029,13.3050,4.60155,2470.646,2023-8-18T05:27:21Z
2023-08-18T03:28:04Z,42.805,6.029,13.3044,4.60167,2470.637,2023-8-18T05:30:24Z
2023-08-18T03:31:07Z,42.805,6.029,13.3052,4.60160,2470.646,2023-8-18T05:33:27Z
2023-08-18T03:34:10Z,42.805,6.029,13.3049,4.60155,2470.646,2023-8-18T05:36:30Z
2023-08-18T03:37:14Z,42.805,6.029,13.3054,4.60173,2470.646,2023-8-18T05:39:33Z
2023-08-18T03:40:17Z,42.805,6.029,13.3062,4.60160,2470.646,2023-8-18T05:42:36Z
2023-08-18T03:43:20Z,42.805,6.029,13.3028,4.60113,2470.614,2023-8-18T05:45:39Z
2023-08-18T03:46:23Z,42.805,6.029,13.3050,4.60127,2470.646,2023-8-18T05:48:42Z
2023-08-18T03:49:26Z,42.805,6.029,13.3056,4.60148,2470.646,2023-8-18T05:51:45Z
2023-08-18T03:52:29Z,42.805,6.029,13.3059,4.60160,2470.646,2023-8-18T05:54:49Z
2023-08-18T03:55:32Z,42.805,6.029,13.3047,4.60168,2470.646,2023-8-18T05:57:52Z
2023-08-18T03:58:35Z,42.805,6.029,13.3060,4.60153,2470.661,2023-8-18T06:00:55Z
2023-08-18T04:01:38Z,42.805,6.029,13.3057,4.60150,2470.646,2023-8-18T06:03:58Z
2023-08-18T04:04:41Z,42.805,6.029,13.3056,4.60142,2470.637,2023-8-18T06:07:01Z
2023-08-18T04:07:44Z,42.805,6.029,13.3067,4.60128,2470.624,2023-8-18T06:10:04Z
2023-08-18T04:10:47Z,42.805,6.029,13.3061,4.60134,2470.646,2023-8-18T06:13:07Z
2023-08-18T04:13:51Z,42.805,6.029,13.3062,4.60161,2470.684,2023-8-18T06:16:10Z
2023-08-18T04:16:54Z,42.805,6.029,13.3060,4.60155,2470.646,2023-8-18T06:19:13Z
2023-08-18T04:19:57Z,42.805,6.029,13.3055,4.60134,2470.624,2023-8-18T06:22:16Z
2023-08-18T04:23:00Z,42.805,6.029,13.3054,4.60146,2470.637,2023-8-18T06:25:19Z
2023-08-18T04:26:03Z,42.805,6.029,13.3056,4.60142,2470.646,2023-8-18T06:28:22Z
2023-08-18T04:29:06Z,42.805,6.029,13.3061,4.60137,2470.646,2023-8-18T06:31:26Z
2023-08-18T04:32:09Z,42.805,6.029,13.3051,4.60152,2470.684,2023-8-18T06:34:29Z
2023-08-18T04:35:12Z,42.805,6.029,13.3051,4.60126,2470.633,2023-8-18T06:37:32Z
2023-08-18T04:38:15Z,42.805,6.029,13.3033,4.60110,2470.67,2023-8-18T06:40:35Z
2023-08-18T04:41:18Z,42.805,6.029,13.3073,4.60109,2470.67,2023-8-18T06:43:38Z
2023-08-18T04:44:21Z,42.805,6.029,13.3053,4.60127,2470.67,2023-8-18T06:46:41Z
2023-08-18T04:47:24Z,42.805,6.029,13.3056,4.60119,2470.684,2023-8-18T06:49:44Z
2023-08-18T04:50:28Z,42.805,6.029,13.3054,4.60112,2470.693,2023-8-18T06:52:47Z
2023-08-18T04:53:31Z,42.805,6.029,13.3048,4.60125,2470.707,2023-8-18T06:55:50Z
2023-08-18T04:56:34Z,42.805,6.029,13.3060,4.60129,2470.624,2023-8-18T06:58:53Z
2023-08-18T04:59:37Z,42.805,6.029,13.3059,4.60110,2470.67,2023-8-18T07:01:56Z
2023-08-18T05:02:40Z,42.805,6.029,13.3050,4.60096,2470.707,2023-8-18T07:04:59Z
2023-08-18T05:05:43Z,42.805,6.029,13.3029,4.60097,2470.717,2023-8-18T07:08:03Z
2023-08-18T05:08:46Z,42.805,6.029,13.3034,4.60096,2470.67,2023-8-18T07:11:06Z
2023-08-18T05:11:49Z,42.805,6.029,13.3029,4.60093,2470.684,2023-8-18T07:14:09Z
2023-08-18T05:14:52Z,42.805,6.029,13.3031,4.60095,2470.67,2023-8-18T07:17:12Z
2023-08-18T05:17:55Z,42.805,6.029,13.3029,4.60092,2470.67,2023-8-18T07:20:15Z
2023-08-18T05:20:58Z,42.805,6.029,13.3026,4.60095,2470.684,2023-8-18T07:23:18Z
2023-08-18T05:24:01Z,42.805,6.029,13.3030,4.60094,2470.717,2023-8-18T07:26:21Z
2023-08-18T05:27:05Z,42.805,6.029,13.3029,4.60095,2470.717,2023-8-18T07:29:24Z
2023-08-18T05:30:08Z,42.805,6.029,13.3034,4.60093,2470.707,2023-8-18T07:32:27Z
2023-08-18T05:33:11Z,42.805,6.029,13.3031,4.60092,2470.684,2023-8-18T07:35:30Z
2023-08-18T05:36:14Z,42.805,6.029,13.3036,4.60096,2470.707,2023-8-18T07:38:33Z
2023-08-18T05:39:17Z,42.805,6.029,13.3038,4.60106,2470.707,2023-8-18T07:41:36Z
2023-08-18T05:42:20Z,42.805,6.029,13.3032,4.60093,2470.707,2023-8-18T07:44:40Z
2023-08-18T05:45:23Z,42.805,6.029,13.3027,4.60096,2470.693,2023-8-18T07:47:43Z
2023-08-18T05:48:26Z,42.805,6.029,13.3031,4.60093,2470.717,2023-8-18T07:50:46Z
2023-08-18T05:51:29Z,42.805,6.029,13.3041,4.60099,2470.707,2023-8-18T07:53:49Z
2023-08-18T05:54:32Z,42.805,6.029,13.3033,4.60094,2470.717,2023-8-18T07:56:52Z
2023-08-18T05:57:35Z,42.805,6.029,13.3033,4.60094,2470.73,2023-8-18T07:59:55Z
2023-08-18T06:00:39Z,42.805,6.029,13.3031,4.60095,2470.717,2023-8-18T08:02:58Z
2023-08-18T06:03:42Z,42.805,6.029,13.3034,4.60096,2470.717,2023-8-18T08:06:01Z
2023-08-18T06:06:45Z,42.805,6.029,13.3028,4.60094,2470.717,2023-8-18T08:09:04Z
2023-08-18T06:09:48Z,42.805,6.029,13.3025,4.60095,2470.74,2023-8-18T08:12:07Z
2023-08-18T06:12:51Z,42.805,6.029,13.3029,4.60095,2470.754,2023-8-18T08:15:10Z
2023-08-18T06:15:54Z,42.805,6.029,13.3028,4.60098,2470.754,2023-8-18T08:18:13Z
2023-08-18T06:18:57Z,42.805,6.029,13.3028,4.60095,2470.74,2023-8-18T08:21:17Z
2023-08-18T06:22:00Z,42.805,6.029,13.3027,4.60094,2470.763,2023-8-18T08:24:20Z
2023-08-18T06:25:03Z,42.805,6.029,13.3030,4.60097,2470.717,2023-8-18T08:27:23Z
2023-08-18T06:28:06Z,42.805,6.029,13.3029,4.60098,2470.73,2023-8-18T08:30:26Z
2023-08-18T06:31:08Z,42.805,6.029,13.3034,4.60097,2470.74,2023-8-18T08:33:27Z
2023-08-18T06:34:11Z,42.805,6.029,13.3031,4.60098,2470.74,2023-8-18T08:36:31Z
2023-08-18T06:37:14Z,42.805,6.029,13.3032,4.60093,2470.74,2023-8-18T08:39:34Z
2023-08-18T06:40:17Z,42.805,6.029,13.3028,4.60092,2470.74,2023-8-18T08:42:37Z
2023-08-18T06:43:20Z,42.805,6.029,13.3027,4.60093,2470.777,2023-8-18T08:45:40Z
2023-08-18T06:46:23Z,42.805,6.029,13.3029,4.60097,2470.763,2023-8-18T08:48:43Z
2023-08-18T06:49:26Z,42.805,6.029,13.3033,4.60096,2470.763,2023-8-18T08:51:46Z
2023-08-18T06:52:29Z,42.805,6.029,13.3030,4.60095,2470.763,2023-8-18T08:54:49Z
2023-08-18T06:55:33Z,42.805,6.029,13.3027,4.60098,2470.777,2023-8-18T08:57:52Z
2023-08-18T06:58:36Z,42.805,6.029,13.3030,4.60095,2470.74,2023-8-18T09:00:55Z
2023-08-18T07:01:39Z,42.805,6.029,13.3031,4.60097,2470.763,2023-8-18T09:03:58Z
2023-08-18T07:04:42Z,42.805,6.029,13.3028,4.60093,2470.777,2023-8-18T09:07:01Z
2023-08-18T07:07:45Z,42.805,6.029,13.3026,4.60094,2470.74,2023-8-18T09:10:04Z
2023-08-18T07:10:48Z,42.805,6.029,13.3034,4.60098,2470.787,2023-8-18T09:13:07Z
2023-08-18T07:13:51Z,42.805,6.029,13.3030,4.60096,2470.8,2023-8-18T09:16:11Z
2023-08-18T07:16:54Z,42.805,6.029,13.3030,4.60097,2470.763,2023-8-18T09:19:14Z
2023-08-18T07:19:57Z,42.805,6.029,13.3026,4.60093,2470.8,2023-8-18T09:22:17Z
2023-08-18T07:23:00Z,42.805,6.029,13.3031,4.60096,2470.763,2023-8-18T09:25:20Z
2023-08-18T07:26:03Z,42.805,6.029,13.3027,4.60096,2470.763,2023-8-18T09:28:23Z
2023-08-18T07:29:06Z,42.805,6.029,13.3029,4.60094,2470.763,2023-8-18T09:31:26Z
2023-08-18T07:32:10Z,42.805,6.029,13.3029,4.60095,2470.787,2023-8-18T09:34:29Z
2023-08-18T07:35:13Z,42.805,6.029,13.3029,4.60096,2470.763,2023-8-18T09:37:32Z
2023-08-18T07:38:16Z,42.805,6.029,13.3031,4.60094,2470.8,2023-8-18T09:40:35Z
2023-08-18T07:41:19Z,42.805,6.029,13.3029,4.60097,2470.787,2023-8-18T09:43:38Z
2023-08-18T07:44:22Z,42.805,6.029,13.3029,4.60097,2470.763,2023-8-18T09:46:41Z
2023-08-18T07:47:25Z,42.805,6.029,13.3029,4.60094,2470.777,2023-8-18T09:49:45Z
2023-08-18T07:50:28Z,42.805,6.029,13.3029,4.60096,2470.777,2023-8-18T09:52:48Z
2023-08-18T07:53:31Z,42.805,6.029,13.3031,4.60097,2470.763,2023-8-18T09:55:51Z
2023-08-18T07:56:34Z,42.805,6.029,13.3031,4.60096,2470.763,2023-8-18T09:58:54Z
2023-08-18T07:59:37Z,42.805,6.029,13.3031,4.60096,2470.787,2023-8-18T10:01:57Z
2023-08-18T08:02:40Z,42.805,6.029,13.3032,4.60095,2470.777,2023-8-18T10:05:00Z
2023-08-18T08:05:43Z,42.805,6.029,13.3031,4.60096,2470.777,2023-8-18T10:08:03Z
2023-08-18T08:08:47Z,42.805,6.029,13.3031,4.60093,2470.8,2023-8-18T10:11:06Z
2023-08-18T08:11:50Z,42.805,6.029,13.3030,4.60094,2470.787,2023-8-18T10:14:09Z
2023-08-18T08:14:53Z,42.805,6.029,13.3032,4.60094,2470.777,2023-8-18T10:17:12Z
2023-08-18T08:17:56Z,42.805,6.029,13.3026,4.60094,2470.763,2023-8-18T10:20:15Z
2023-08-18T08:20:59Z,42.805,6.029,13.3030,4.60094,2470.763,2023-8-18T10:23:18Z
2023-08-18T08:24:02Z,42.805,6.029,13.3029,4.60094,2470.787,2023-8-18T10:26:22Z
2023-08-18T08:27:05Z,42.805,6.029,13.3031,4.60093,2470.787,2023-8-18T10:29:25Z
2023-08-18T08:30:10Z,42.805,6.029,13.3031,4.60093,2470.787,2023-8-18T10:32:30Z
2023-08-18T08:33:14Z,42.805,6.029,13.3031,4.60093,2470.787,2023-8-18T10:35:33Z
2023-08-18T08:36:17Z,42.805,6.029,13.3029,4.60095,2470.763,2023-8-18T10:38:36Z
2023-08-18T08:39:20Z,42.805,6.029,13.3034,4.60098,2470.777,2023-8-18T10:41:39Z
2023-08-18T08:42:23Z,42.805,6.029,13.3029,4.60093,2470.74,2023-8-18T10:44:42Z
2023-08-18T08:45:26Z,42.805,6.029,13.3029,4.60093,2470.763,2023-8-18T10:47:45Z
2023-08-18T08:48:29Z,42.805,6.029,13.3029,4.60093,2470.763,2023-8-18T10:50:49Z
2023-08-18T08:51:32Z,42.805,6.029,13.3029,4.60094,2470.777,2023-8-18T10:53:52Z
2023-08-18T08:54:35Z,42.805,6.029,13.3029,4.60093,2470.763,2023-8-18T10:56:55Z
2023-08-18T08:57:38Z,42.805,6.029,13.3026,4.60094,2470.8,2023-8-18T10:59:58Z
2023-08-18T09:00:41Z,42.805,6.029,13.3028,4.60092,2470.777,2023-8-18T11:03:01Z
2023-08-18T09:03:44Z,42.805,6.029,13.3032,4.60092,2470.777,2023-8-18T11:06:04Z
2023-08-18T09:06:48Z,42.805,6.029,13.3029,4.60094,2470.75,2023-8-18T11:09:07Z
2023-08-18T09:09:51Z,42.805,6.029,13.3031,4.60093,2470.74,2023-8-18T11:12:10Z
2023-08-18T09:12:54Z,42.805,6.029,13.3032,4.60095,2470.717,2023-8-18T11:15:13Z
2023-08-18T09:15:57Z,42.805,6.029,13.3027,4.60093,2470.763,2023-8-18T11:18:16Z
2023-08-18T09:19:00Z,42.805,6.029,13.3029,4.60095,2470.763,2023-8-18T11:21:19Z
2023-08-18T09:22:03Z,42.805,6.029,13.3029,4.60094,2470.717,2023-8-18T11:24:23Z
2023-08-18T09:25:06Z,42.805,6.029,13.3026,4.60096,2470.787,2023-8-18T11:27:26Z
2023-08-18T09:28:09Z,42.805,6.029,13.3034,4.60092,2470.777,2023-8-18T11:30:29Z
2023-08-18T09:31:12Z,42.805,6.029,13.3028,4.60092,2470.763,2023-8-18T11:33:32Z
2023-08-18T09:34:15Z,42.805,6.029,13.3029,4.60094,2470.754,2023-8-18T11:36:35Z
2023-08-18T09:37:18Z,42.805,6.029,13.3029,4.60093,2470.754,2023-8-18T11:39:38Z
2023-08-18T09:40:21Z,42.805,6.029,13.3031,4.60092,2470.74,2023-8-18T11:42:41Z
2023-08-18T09:43:25Z,42.805,6.029,13.3029,4.60092,2470.717,2023-8-18T11:45:44Z
2023-08-18T09:46:28Z,42.805,6.029,13.3031,4.60092,2470.74,2023-8-18T11:48:47Z
2023-08-18T09:49:31Z,42.805,6.029,13.3031,4.60095,2470.763,2023-8-18T11:51:50Z
2023-08-18T09:52:34Z,42.805,6.029,13.3030,4.60094,2470.777,2023-8-18T11:54:53Z
2023-08-18T09:55:37Z,42.805,6.029,13.3031,4.60094,2470.754,2023-8-18T11:57:56Z
2023-08-18T09:58:40Z,42.805,6.029,13.3030,4.60094,2470.74,2023-8-18T12:01:00Z
2023-08-18T10:01:43Z,42.805,6.029,13.3031,4.60092,2470.763,2023-8-18T12:04:03Z
2023-08-18T10:04:46Z,42.805,6.029,13.3030,4.60092,2470.717,2023-8-18T12:07:06Z
2023-08-18T10:07:49Z,42.805,6.029,13.3027,4.60092,2470.74,2023-8-18T12:10:09Z
2023-08-18T10:10:52Z,42.805,6.029,13.3031,4.60093,2470.74,2023-8-18T12:13:12Z
2023-08-18T10:13:55Z,42.805,6.029,13.3029,4.60093,2470.717,2023-8-18T12:16:15Z
2023-08-18T10:16:58Z,42.805,6.029,13.3033,4.60092,2470.693,2023-8-18T12:19:18Z
2023-08-18T10:20:02Z,42.805,6.029,13.3031,4.60093,2470.717,2023-8-18T12:22:21Z
2023-08-18T10:23:05Z,42.805,6.029,13.3032,4.60097,2470.754,2023-8-18T12:25:24Z
2023-08-18T10:26:08Z,42.805,6.029,13.3026,4.60094,2470.74,2023-8-18T12:28:27Z
2023-08-18T10:29:11Z,42.805,6.029,13.3035,4.60095,2470.717,2023-8-18T12:31:30Z
2023-08-18T10:32:14Z,42.805,6.029,13.3028,4.60097,2470.73,2023-8-18T12:34:33Z
2023-08-18T10:35:17Z,42.805,6.029,13.3029,4.60093,2470.717,2023-8-18T12:37:37Z
2023-08-18T10:38:20Z,42.805,6.029,13.3034,4.60098,2470.693,2023-8-18T12:40:40Z
2023-08-18T10:41:23Z,42.805,6.029,13.3031,4.60095,2470.73,2023-8-18T12:43:43Z
2023-08-18T10:44:26Z,42.805,6.029,13.3032,4.60093,2470.717,2023-8-18T12:46:46Z
2023-08-18T10:47:29Z,42.805,6.029,13.3030,4.60093,2470.693,2023-8-18T12:49:49Z
2023-08-18T10:50:32Z,42.805,6.029,13.3034,4.60095,2470.707,2023-8-18T12:52:52Z
2023-08-18T10:53:35Z,42.805,6.029,13.3029,4.60094,2470.693,2023-8-18T12:55:55Z
2023-08-18T10:56:39Z,42.805,6.029,13.3031,4.60096,2470.754,2023-8-18T12:58:58Z
2023-08-18T10:59:42Z,42.805,6.029,13.3033,4.60094,2470.717,2023-8-18T13:02:01Z
2023-08-18T11:02:45Z,42.805,6.029,13.3042,4.60096,2470.707,2023-8-18T13:05:04Z
2023-08-18T11:05:48Z,42.805,6.029,13.3032,4.60095,2470.693,2023-8-18T13:08:07Z
2023-08-18T11:08:51Z,42.805,6.029,13.3026,4.60097,2470.73,2023-8-18T13:11:10Z
2023-08-18T11:11:54Z,42.805,6.029,13.3037,4.60108,2470.707,2023-8-18T13:14:14Z
2023-08-18T11:14:57Z,42.805,6.029,13.3037,4.60102,2470.67,2023-8-18T13:17:17Z
2023-08-18T11:18:00Z,42.805,6.029,13.3034,4.60096,2470.693,2023-8-18T13:20:20Z
2023-08-18T11:21:03Z,42.805,6.029,13.3032,4.60093,2470.656,2023-8-18T13:23:23Z
2023-08-18T11:24:06Z,42.805,6.029,13.3034,4.60102,2470.693,2023-8-18T13:26:26Z
2023-08-18T11:27:09Z,42.805,6.029,13.3042,4.60095,2470.693,2023-8-18T13:29:29Z
2023-08-18T11:30:13Z,42.805,6.029,13.3046,4.60115,2470.67,2023-8-18T13:32:32Z
2023-08-18T11:33:16Z,42.805,6.029,13.3039,4.60096,2470.67,2023-8-18T13:35:35Z
2023-08-18T11:36:19Z,42.805,6.029,13.3034,4.60096,2470.684,2023-8-18T13:38:38Z
2023-08-18T11:39:22Z,42.805,6.029,13.3039,4.60105,2470.684,2023-8-18T13:41:41Z
2023-08-18T11:42:25Z,42.805,6.029,13.3033,4.60094,2470.693,2023-8-18T13:44:44Z
2023-08-18T11:45:28Z,42.805,6.029,13.3032,4.60093,2470.646,2023-8-18T13:47:48Z
2023-08-18T11:48:31Z,42.805,6.029,13.3030,4.60092,2470.624,2023-8-18T13:50:51Z
2023-08-18T11:51:34Z,42.805,6.029,13.3031,4.60092,2470.661,2023-8-18T13:53:54Z
2023-08-18T11:54:37Z,42.805,6.029,13.3036,4.60093,2470.646,2023-8-18T13:56:57Z
2023-08-18T11:57:40Z,42.805,6.029,13.3034,4.60092,2470.67,2023-8-18T14:00:00Z
2023-08-18T12:00:43Z,42.805,6.029,13.3031,4.60091,2470.646,2023-8-18T14:03:03Z
2023-08-18T12:03:46Z,42.805,6.029,13.3033,4.60092,2470.661,2023-8-18T14:06:06Z
2023-08-18T12:06:49Z,42.805,6.029,13.3032,4.60092,2470.693,2023-8-18T14:09:09Z
2023-08-18T12:09:53Z,42.805,6.029,13.3040,4.60104,2470.637,2023-8-18T14:12:12Z
2023-08-18T12:12:56Z,42.805,6.029,13.3041,4.60102,2470.661,2023-8-18T14:15:15Z
2023-08-18T12:15:59Z,42.805,6.029,13.3041,4.60093,2470.646,2023-8-18T14:18:18Z
2023-08-18T12:19:02Z,42.805,6.029,13.3036,4.60099,2470.637,2023-8-18T14:21:21Z
2023-08-18T12:22:05Z,42.805,6.029,13.3032,4.60104,2470.637,2023-8-18T14:24:25Z
2023-08-18T12:25:08Z,42.805,6.029,13.3048,4.60103,2470.646,2023-8-18T14:27:28Z
2023-08-18T12:28:11Z,42.805,6.029,13.3040,4.60120,2470.6,2023-8-18T14:30:31Z
2023-08-18T12:31:16Z,42.805,6.029,13.3046,4.60114,2470.67,2023-8-18T14:33:36Z
2023-08-18T12:34:19Z,42.805,6.029,13.3039,4.60116,2470.67,2023-8-18T14:36:39Z
2023-08-18T12:37:22Z,42.805,6.029,13.3046,4.60107,2470.624,2023-8-18T14:39:42Z
2023-08-18T12:40:25Z,42.805,6.029,13.3045,4.60124,2470.661,2023-8-18T14:42:45Z
2023-08-18T12:43:28Z,42.805,6.029,13.3049,4.60113,2470.624,2023-8-18T14:45:48Z
2023-08-18T12:46:32Z,42.805,6.029,13.3051,4.60110,2470.614,2023-8-18T14:48:51Z
2023-08-18T12:49:35Z,42.805,6.029,13.3044,4.60125,2470.661,2023-8-18T14:51:54Z
2023-08-18T12:52:38Z,42.805,6.029,13.3043,4.60124,2470.637,2023-8-18T14:54:57Z
2023-08-18T12:55:41Z,42.805,6.029,13.3048,4.60114,2470.637,2023-8-18T14:58:00Z
2023-08-18T12:58:44Z,42.805,6.029,13.3042,4.60135,2470.646,2023-8-18T15:01:03Z
2023-08-18T13:01:47Z,42.805,6.029,13.3053,4.60110,2470.637,2023-8-18T15:04:07Z
2023-08-18T13:04:50Z,42.805,6.029,13.3056,4.60114,2470.67,2023-8-18T15:07:10Z
2023-08-18T13:07:53Z,42.805,6.029,13.3051,4.60119,2470.624,2023-8-18T15:10:13Z
2023-08-18T13:10:56Z,42.805,6.029,13.3048,4.60115,2470.614,2023-8-18T15:13:16Z
2023-08-18T13:13:59Z,42.805,6.029,13.3047,4.60110,2470.6,2023-8-18T15:16:19Z
2023-08-18T13:17:02Z,42.805,6.029,13.3034,4.60091,2470.614,2023-8-18T15:19:22Z
2023-08-18T13:20:05Z,42.805,6.029,13.3040,4.60110,2470.614,2023-8-18T15:22:25Z
2023-08-18T13:23:09Z,42.805,6.029,13.3043,4.60113,2470.646,2023-8-18T15:25:28Z
2023-08-18T13:26:12Z,42.805,6.029,13.3048,4.60108,2470.624,2023-8-18T15:28:31Z
2023-08-18T13:29:15Z,42.805,6.029,13.3051,4.60111,2470.6,2023-8-18T15:31:34Z
2023-08-18T13:32:18Z,42.805,6.029,13.3046,4.60099,2470.624,2023-8-18T15:34:37Z
2023-08-18T13:35:21Z,42.805,6.029,13.3044,4.60101,2470.6,2023-8-18T15:37:41Z
2023-08-18T13:38:24Z,42.805,6.029,13.3040,4.60119,2470.637,2023-8-18T15:40:44Z
2023-08-18T13:41:27Z,42.805,6.029,13.3042,4.60102,2470.6,2023-8-18T15:43:47Z
2023-08-18T13:44:30Z,42.805,6.029,13.3033,4.60094,2470.6,2023-8-18T15:46:50Z
2023-08-18T13:47:33Z,42.805,6.029,13.3046,4.60099,2470.624,2023-8-18T15:49:53Z
2023-08-18T13:50:36Z,42.805,6.029,13.3032,4.60093,2470.624,2023-8-18T15:52:56Z
2023-08-18T13:53:40Z,42.805,6.029,13.3038,4.60096,2470.624,2023-8-18T15:55:59Z
2023-08-18T13:56:43Z,42.805,6.029,13.3048,4.60103,2470.6,2023-8-18T15:59:02Z
2023-08-18T13:59:46Z,42.805,6.029,13.3042,4.60121,2470.624,2023-8-18T16:02:05Z
2023-08-18T14:02:49Z,42.805,6.029,13.3053,4.60135,2470.6,2023-8-18T16:05:08Z
2023-08-18T14:05:52Z,42.805,6.029,13.3040,4.60139,2470.624,2023-8-18T16:08:11Z
2023-08-18T14:08:55Z,42.805,6.029,13.3043,4.60116,2470.624,2023-8-18T16:11:14Z
2023-08-18T14:11:58Z,42.805,6.029,13.3049,4.60125,2470.6,2023-8-18T16:14:18Z
2023-08-18T14:15:01Z,42.805,6.029,13.3050,4.60152,2470.614,2023-8-18T16:17:21Z
2023-08-18T14:18:04Z,42.805,6.029,13.3054,4.60146,2470.577,2023-8-18T16:20:24Z
2023-08-18T14:21:07Z,42.805,6.029,13.3046,4.60129,2470.6,2023-8-18T16:23:27Z
2023-08-18T14:24:10Z,42.805,6.029,13.3041,4.60101,2470.6,2023-8-18T16:26:30Z
2023-08-18T14:27:13Z,42.805,6.029,13.3046,4.60142,2470.6,2023-8-18T16:29:33Z
2023-08-18T14:30:16Z,42.805,6.029,13.3052,4.60125,2470.6,2023-8-18T16:32:35Z
2023-08-18T14:33:19Z,42.805,6.029,13.3048,4.60119,2470.577,2023-8-18T16:35:38Z
2023-08-18T14:36:22Z,42.805,6.029,13.3051,4.60112,2470.624,2023-8-18T16:38:42Z
2023-08-18T14:39:25Z,42.805,6.029,13.3047,4.60117,2470.614,2023-8-18T16:41:45Z
2023-08-18T14:42:28Z,42.805,6.029,13.3048,4.60123,2470.6,2023-8-18T16:44:48Z
2023-08-18T14:45:31Z,42.805,6.029,13.3049,4.60141,2470.624,2023-8-18T16:47:51Z
2023-08-18T14:48:34Z,42.805,6.029,13.3051,4.60137,2470.6,2023-8-18T16:50:54Z
2023-08-18T14:51:37Z,42.805,6.029,13.3043,4.60125,2470.6,2023-8-18T16:53:57Z
2023-08-18T14:54:40Z,42.805,6.029,13.3051,4.60137,2470.614,2023-8-18T16:57:00Z
2023-08-18T14:57:44Z,42.805,6.029,13.3047,4.60137,2470.577,2023-8-18T17:00:03Z
2023-08-18T15:00:47Z,42.805,6.029,13.3039,4.60123,2470.6,2023-8-18T17:03:06Z
2023-08-18T15:03:50Z,42.805,6.029,13.3053,4.60147,2470.6,2023-8-18T17:06:09Z
2023-08-18T15:06:53Z,42.805,6.029,13.3052,4.60127,2470.614,2023-8-18T17:09:12Z
2023-08-18T15:09:56Z,42.805,6.029,13.3043,4.60119,2470.628,2023-8-18T17:12:15Z
2023-08-18T15:12:59Z,42.805,6.029,13.3051,4.60137,2470.624,2023-8-18T17:15:19Z